This is the latest recevied weather packets stored in our database for station/object VK5TRM-13. If no packets are shown the sender has not sent any weather packets the latest 10 day(s).
| Time | Temp. | Humidity | Pressure | Rain* | Wind** | Luminosity | Snow |
|---|---|---|---|---|---|---|---|
| 1777954505 | 16.67° C | 68% | 1022.8 hPa | 0.25 mm | - | - | - |
| 1777953605 | 16.67° C | 69% | 1023 hPa | 0.25 mm | - | - | - |
| 1777952705 | 16.67° C | 69% | 1023 hPa | 0.25 mm | - | - | - |
| 1777951804 | 16.67° C | 71% | 1023.3 hPa | 0.25 mm | - | - | - |
| 1777950905 | 16.67° C | 71% | 1023.3 hPa | 0.25 mm | - | - | - |
| 1777950005 | 16.11° C | 72% | 1023.7 hPa | 0.25 mm | - | - | - |
| 1777949105 | 16.11° C | 72% | 1023.7 hPa | 0.25 mm | - | - | - |
| 1777948205 | 16.11° C | 72% | 1023.9 hPa | 0 mm | - | - | - |
| 1777947305 | 16.11° C | 72% | 1023.9 hPa | 0 mm | - | - | - |
| 1777946405 | 16.11° C | 73% | 1024 hPa | 0 mm | - | - | - |
| 1777945505 | 16.11° C | 73% | 1024 hPa | 0 mm | - | - | - |
| 1777944605 | 15.56° C | 75% | 1023.9 hPa | 0 mm | - | - | - |
| 1777943705 | 15.56° C | 75% | 1023.9 hPa | 0 mm | - | - | - |
| 1777942805 | 15.56° C | 77% | 1023.7 hPa | 0 mm | - | - | - |
| 1777941905 | 15.56° C | 77% | 1023.7 hPa | 0 mm | - | - | - |
| 1777941005 | 15° C | 81% | 1023.6 hPa | 0 mm | - | - | - |
| 1777940105 | 15° C | 81% | 1023.6 hPa | 0 mm | - | - | - |
| 1777939205 | 13.89° C | 86% | 1023.4 hPa | 0 mm | - | - | - |
| 1777938305 | 13.89° C | 86% | 1023.4 hPa | 0 mm | - | - | - |
| 1777937405 | 12.78° C | 90% | 1023.4 hPa | 0 mm | - | - | - |
| 1777936505 | 12.78° C | 90% | 1023.4 hPa | 0 mm | - | - | - |
| 1777935605 | 11.67° C | 92% | 1023 hPa | 0 mm | - | - | - |
| 1777934705 | 11.67° C | 92% | 1023 hPa | 0 mm | - | - | - |
| 1777933805 | 11.11° C | 94% | 1022.6 hPa | 0 mm | - | - | - |
| 1777932905 | 11.11° C | 94% | 1022.6 hPa | 0 mm | - | - | - |
* Rain since midnight (hover to see other rain measurements)
** Current wind speed in m/s (hover to see current wind gust speed)